Lexington Weather

Lexington, Massachusetts, USA

44°F
5/12/2021 4:40am 
  • Lexington Conditions: Clear
  • Temperature: 44.4°F / 6.9°CColder 0.4°F than last hour.
  • Dew Point: 33.1°FIncreased 0.9°Fsince last hour.
  • Relative Humidity: 64%Increased 3.0% since last hour.
  • Wind: Wind from NW NW Calm, 10-min avg: 1 mph, gust: 7 mph
  • Barometer: 29.92 in Steady
  • Visibility: 10 miles
  • Rain Today: 0.00 in
  •   

Regional Weather Roundup
for Boston / Norton, MA

        
000
ASUS41 KBOX 082004
RWRBOX

REGIONAL WEATHER ROUNDUP
NATIONAL WEATHER SERVICE BOSTON/NORTON MA
400 PM EDT SAT MAY 08 2021

NOTE:  "FAIR" INDICATES FEW OR NO CLOUDS BELOW 12,000 FEET WITH NO 
SIGNIFICANT WEATHER AND/OR OBSTRUCTIONS TO VISIBILITY.

MAZALL-082100-
EASTERN MASSACHUSETTS
  
CITY           SKY/WX    TMP DP  RH WIND       PRES   REMARKS
BOSTON         CLOUDY    52  37  56 E13       29.83F                  
BEVERLY        CLOUDY    53  38  56 SE6       29.82F                  
LAWRENCE       CLOUDY    54  36  50 E5        29.83F                  
BEDFORD        CLOUDY    56  33  42 CALM      29.81F                  
BLUE HILL        N/A     52  35  52 VRB6      29.81F                  
NORWOOD        CLOUDY    56  37  49 SE7       29.82F                  
MARSHFIELD     CLOUDY    52  39  62 E5        29.83F                  
PLYMOUTH       CLOUDY    51  36  56 E9        29.83F                  
TAUNTON        PTSUNNY   55  35  47 VRB5      29.83S                  
NEW BEDFORD    CLOUDY    54  36  50 E9        29.83S                  
$$

MAZALL-082100-
CAPE COD AND THE ISLANDS
  
CITY           SKY/WX    TMP DP  RH WIND       PRES   REMARKS
FALMOUTH       MOSUNNY   50  37  62 NE14      29.84S                  
HYANNIS        PTSUNNY   52  41  66 N10       29.82R                  
CHATHAM        CLOUDY    50  37  61 NE9       29.83F                  
PROVINCETOWN   CLOUDY    50  39  66 N7        29.84F                  
NANTUCKET      CLOUDY    52  40  63 N9        29.83S                  
MARTHAS VNYRD  CLOUDY    54  36  50 NE10      29.84R                  
$$
 
MAZALL-082100-
CENTRAL AND WESTERN MASSACHUSETTS
  
CITY           SKY/WX    TMP DP  RH WIND       PRES   REMARKS
WORCESTER      CLOUDY    54  29  38 VRB6      29.81S                  
FITCHBURG      CLOUDY    55  32  41 E6        29.82S                  
ORANGE         CLOUDY    57  28  33 VRB5      29.81F                  
SPRINGFIELD    CLOUDY    58  31  36 N9        29.79F                  
WESTFIELD      CLOUDY    58  31  35 VRB3      29.80F                  
NORTH ADAMS    CLOUDY    54  38  54 W9        29.82R                  
PITTSFIELD     CLOUDY    51  37  58 W5        29.80F                  
$$
 
RIZALL-082100-
RHODE ISLAND
  
CITY           SKY/WX    TMP DP  RH WIND       PRES   REMARKS
PROVIDENCE     CLOUDY    55  36  48 NE8       29.83S                  
NEWPORT        CLOUDY    51  40  65 S5        29.83S                  
BLOCK ISLAND   CLOUDY    52  37  56 SW8       29.85S                  
SMITHFIELD       N/A     54  36  50 NE7       29.82F                  
WESTERLY       CLOUDY    52  37  56 S9        29.83R                  
$$
 
CTZALL-082100-
CONNECTICUT
  
CITY           SKY/WX    TMP DP  RH WIND       PRES   REMARKS
BRADLEY INTL   CLOUDY    59  31  34 VRB3      29.80F                  
HARTFORD       CLOUDY    58  32  37 S7        29.81S                  
BRIDGEPORT     CLOUDY    54  34  46 E3        29.85S                  
DANBURY        CLOUDY    52  37  56 CALM      29.86R                  
GROTON         PTSUNNY   53  40  61 SW13      29.82S                  
NEW HAVEN      CLOUDY    55  38  52 S6        29.85R                  
CHESTER        DRIZZLE   54  37  54 W8        29.82S                  
MERIDEN        CLOUDY    54  35  48 VRB7      29.84R                  
WILLIMANTIC    PTSUNNY   57  30  35 CALM      29.81S                  
OXFORD         CLOUDY    50  38  63 N5        29.85S                  
$$

MEZ002-015-021-024-NHZ003-005-008-011-012-014-VTZ005-008-082100-
NORTHERN NEW ENGLAND
  
CITY           SKY/WX    TMP DP  RH WIND       PRES   REMARKS
PORTLAND ME    CLOUDY    53  34  48 VRB7      29.80F                  
BANGOR ME      CLOUDY    52  35  52 N18       29.77F                  
CONCORD NH     CLOUDY    56  29  35 CALM      29.80F                  
MANCHESTER NH  CLOUDY    58  29  33 NW3       29.79F                  
NASHUA NH      CLOUDY    56  31  38 CALM      29.81F                  
PORTSMOUTH NH  CLOUDY    52  32  46 SE8       29.82F                  
JAFFREY NH     CLOUDY    55  28  35 VRB5      29.80F                  
KEENE NH       CLOUDY    57  31  37 VRB6      29.81F                  
BURLINGTON VT  CLOUDY    58  34  40 NW9       29.83F                  
MT. WASHINGTON CLOUDY    30  25  80 N8          N/A  WCI  23          
$$

NYZ052-076-082100-
EASTERN NEW YORK
  
CITY           SKY/WX    TMP DP  RH WIND       PRES   REMARKS
ALBANY         CLOUDY    52  37  56 SW10      29.84S                  
NEW YORK CITY  CLOUDY    53  37  54 S9        29.85S                  
$$
 
ANZALL-082100-
MARINE OBSERVATIONS
  
STATION/POSITION TIME  TEMP    WIND        PRES    VSBY  WAVE
                       AIR SEA DIR/SP/G                  HT/PER
                 (UTC) (F)     (DEG/KT/KT) (MB)    (MI)  (FT/S)
BOSTON BUOY      1940   48 47   60/  4/  6 1010.3F
BUZZARDS BAY     1900           70/ 13/ 14 1011.3S
NANTUCKET SOUND  1940      52                N/A
MASS BAY-STELLWA 1904   49      20/  4/  4 1009.6S  1 7/8  3/ 5
ISLE OF SHOALS   1900   48     110/  4/  5 1009.9F
S OF BLOCK IS    1926      49                N/A           3/ 8
$$

......................KEY.........................
  SKY/WX - SKY CONDITION/PRESENT WEATHER
  TMP    - TEMPERATURE IN FAHRENHEIT
  DWPT   - DEWPOINT IN FAHRENHEIT
  RH     - RELATIVE HUMIDITY IN PERCENT
  WIND   - DIRECTION AND SPEED IN MPH
  PRES   - MEAN SEA LEVEL PRESSURE IN INCHES OF HG
  WCI    - WIND CHILL INDEX
  VSB    - VISIBILITY IN MILES
  HX     - HEAT INDEX
  TC     - TEMPERATURE IN CELSIUS
  VRB    - VARIABLE WIND DIRECTION
  N/A    - NOT AVAILABLE
  
      

Other recent Regional Weather Roundups

Wed May 12, 4:04am

Wed May 12, 3:04am

Wed May 12, 2:04am

Wed May 12, 1:04am

Wed May 12, 12:05am

Tue May 11, 11:05pm

Tue May 11, 10:04pm

Tue May 11, 9:05pm

Tue May 11, 8:05pm

Tue May 11, 7:04pm

Tue May 11, 6:04pm

Tue May 11, 5:04pm

Tue May 11, 4:05pm

Tue May 11, 3:04pm

Tue May 11, 2:05pm

Tue May 11, 1:04pm

Tue May 11, 12:05pm

Tue May 11, 11:05am

Tue May 11, 10:04am

Tue May 11, 9:04am

Tue May 11, 8:04am

Tue May 11, 7:05am

Tue May 11, 6:04am

Tue May 11, 5:04am

Tue May 11, 4:04am

Tue May 11, 3:04am

Tue May 11, 2:04am

Tue May 11, 1:04am

Tue May 11, 12:04am

Mon May 10, 11:04pm

Mon May 10, 10:04pm

Mon May 10, 9:05pm

Mon May 10, 8:04pm

Mon May 10, 7:05pm

Mon May 10, 6:04pm

Mon May 10, 5:04pm

Mon May 10, 4:04pm

Mon May 10, 3:04pm

Mon May 10, 2:04pm

Mon May 10, 1:04pm

Mon May 10, 12:04pm

Mon May 10, 11:05am

Mon May 10, 10:04am

Mon May 10, 9:04am

Mon May 10, 8:04am

Mon May 10, 7:04am

Mon May 10, 6:04am

Mon May 10, 5:05am

Mon May 10, 4:04am

Mon May 10, 3:04am

Mon May 10, 2:04am

Mon May 10, 1:04am

Mon May 10, 12:04am

Sun May 9, 11:04pm

Sun May 9, 10:04pm

Sun May 9, 9:04pm

Sun May 9, 8:04pm

Sun May 9, 7:05pm

Sun May 9, 6:04pm

Sun May 9, 5:04pm

Sun May 9, 4:04pm

Sun May 9, 3:04pm

Sun May 9, 2:04pm

Sun May 9, 1:05pm

Sun May 9, 12:04pm

Sun May 9, 11:05am

Sun May 9, 10:04am

Sun May 9, 9:04am

Sun May 9, 8:04am

Sun May 9, 7:04am

Sun May 9, 6:04am

Sun May 9, 5:04am

Sun May 9, 4:04am

Sun May 9, 3:04am

Sun May 9, 2:04am

Sun May 9, 1:05am

Sun May 9, 12:04am

Sat May 8, 11:05pm

Sat May 8, 10:04pm

Sat May 8, 9:05pm

Sat May 8, 8:04pm

Sat May 8, 7:04pm

Sat May 8, 6:04pm

Sat May 8, 5:05pm

Sat May 8, 3:05pm

Sat May 8, 2:05pm

Sat May 8, 1:05pm

Sat May 8, 12:04pm

Sat May 8, 11:05am

Sat May 8, 10:04am

Sat May 8, 9:04am

Sat May 8, 8:04am

Sat May 8, 7:04am

Sat May 8, 6:04am

Sat May 8, 5:04am

Sat May 8, 4:04am

Sat May 8, 3:04am

Sat May 8, 2:04am

Sat May 8, 1:05am

Sat May 8, 12:04am

Fri May 7, 11:04pm

Fri May 7, 10:05pm

Fri May 7, 9:04pm

Fri May 7, 8:04pm

Fri May 7, 7:05pm

Fri May 7, 6:04pm

Fri May 7, 5:05pm

Fri May 7, 4:04pm

Fri May 7, 3:04pm

Fri May 7, 2:05pm

Fri May 7, 1:04pm

Fri May 7, 12:04pm

Fri May 7, 11:05am

Fri May 7, 10:04am

Fri May 7, 9:04am

Fri May 7, 8:05am

Fri May 7, 7:04am

Fri May 7, 6:04am

Fri May 7, 5:04am

Fri May 7, 4:04am

Fri May 7, 3:04am

Fri May 7, 2:05am

Fri May 7, 1:04am

Fri May 7, 12:05am

Thu May 6, 11:04pm

Thu May 6, 10:04pm

Thu May 6, 9:05pm

Thu May 6, 8:04pm

Thu May 6, 7:04pm

Thu May 6, 6:04pm

Thu May 6, 5:05pm

Thu May 6, 4:04pm

Thu May 6, 3:04pm

Thu May 6, 2:05pm

Thu May 6, 1:04pm

Thu May 6, 12:04pm

Thu May 6, 11:04am

Thu May 6, 10:04am

Thu May 6, 9:04am

Thu May 6, 8:04am

Thu May 6, 7:04am

Thu May 6, 6:04am

Thu May 6, 5:04am

Thu May 6, 4:04am

Thu May 6, 3:04am

Thu May 6, 2:05am

Thu May 6, 1:04am

Thu May 6, 12:05am

Wed May 5, 11:04pm

Wed May 5, 10:04pm

Wed May 5, 9:05pm

Wed May 5, 8:04pm

Wed May 5, 7:05pm

Wed May 5, 6:04pm

Wed May 5, 5:04pm

Wed May 5, 4:04pm

Wed May 5, 3:04pm

Wed May 5, 2:05pm

Wed May 5, 1:05pm

Wed May 5, 12:04pm

Wed May 5, 11:05am

Wed May 5, 10:04am

Wed May 5, 9:04am

Wed May 5, 8:04am

Wed May 5, 7:04am

Wed May 5, 6:05am

Wed May 5, 5:04am

Meta data:

ID: 696e2158-0d9f-49d1-8148-43572c4155b6
Link: https://api.weather.gov/products/696e2158-0d9f-49d1-8148-43572c4155b6